Location: Dunedin
(45.8900°S, 170.5000°E)
Time: 04:30:05
(UTC+12:00)

ISS - Visible Passes

Search period start: 17 May 2021 00:00
Search period end: 27 May 2021 00:00
Orbit: 417 x 422 km, 51.6° (Epoch: 15 May)

Date Brightness Start Highest point End Pass type
(mag) Time Alt. Az. Time Alt. Az. Time Alt. Az.
20 May -0.9 07:15:48 10° N 07:18:33 23° NE 07:21:19 10° E visible
21 May -0.6 06:29:19 10° NNE 06:31:16 14° NE 06:33:14 10° E visible
22 May -2.9 07:16:49 10° NW 07:20:11 55° NE 07:23:35 10° ESE visible
23 May -2.1 06:29:37 10° NNW 06:32:47 35° NE 06:35:59 10° ESE visible
24 May -1.5 05:44:14 19° NNE 05:45:26 23° NE 05:48:13 10° E visible
24 May -3.7 07:18:34 10° WNW 07:22:00 67° SSW 07:25:27 10° ESE visible
25 May -0.4 04:59:26 12° ENE 04:59:26 12° ENE 05:00:07 10° E visible
25 May -3.7 06:32:26 22° WNW 06:34:30 85° NE 06:37:58 10° ESE visible
26 May -2.9 05:47:24 52° ENE 05:47:24 52° ENE 05:50:26 10° ESE visible
26 May -3.0 07:20:41 10° W 07:23:59 39° SSW 07:27:16 10° ESE visible
